风云三号D星 (FENGYUN 3D)

导读 | 星芒AI

FENGYUN 3D 是中国风云三号气象卫星系列中的一颗极轨气象卫星,于2017年发射。它主要用于全球气象观测、环境监测和气候变化研究,搭载了多种先进的遥感仪器,如红外高光谱探测仪和微波探测仪,能够提供高精度的气象数据。FENGYUN 3D 在提升天气预报准确性、灾害预警和地球科学研究方面发挥了重要作用。

基本信息
目录编号:
43010
目录名称:
FENGYUN 3D
国际标识:
2017-072A
轨道中心:
EARTH
卫星名称:
风云三号D星
卫星全名:
风云三号D星 (FENGYUN 3D)
卫星状态:
在轨 (已飞行2906 天)
发射日期:
2017-11-14 UTC
国别 :
中国 (CN)
星等 :
--
轨道信息
数据来源 国际轨道数据 AOE轨道数据
星历时间 2025-10-28T23:10:31+0800
16小时前
查看轨道信息
2025-10-26T07:00:00+0800
3天前
查看轨道信息
半长轴 7204.631km 7204.631km
偏心率 0.0001766 0.0001704
轨道倾角 98.982° 98.983°
近地点辐角 26.395° 34.247°
升交点赤经 267.282° 264.571°
平近点角 333.731° 347.464°
近地点 825.223km 825.268km
远地点 827.769km 827.724km
周期 101.433分钟 101.433分钟
每日圈数 14.196628 14.196627
详细信息
平衡模式:
三轴稳定
覆盖范围:
亚洲
运营商:
夏威夷科学技术博物馆
运营商所在国:
美国
制造商(研发单位):
上海航天技术研究院
制造商所在国:
中国
使用方式:
暂无
卫星简介
风云气象卫星系列(FENGYUN Meteorological Satellite)是中国于1977年开始研制的气象卫星系列,目前发射了风云一号、风云二号、风云三号、风云四号等卫星系列。其中,风云二号系列、风云四号系列为风云静止卫星,风云一号系列、风云三号系列为风云极轨卫星。该卫星仍在工作。
2D轨道图
3D轨道图
轨道高度分析图
轨道倾角分析图
轨道综合分析图
查看轨道综合分析图